Location: Castiglione Fibocchi
(43.5333°N, 11.7667°E)
Time: 18:14:25
(UTC+00:00)

USA 267 - Pass Details

Date: 15 August 2020
Orbit: 1102 x 1106 km, 123.0° (Epoch: 17 September)

Event Time Altitude Azimuth Distance (km) Brightness Sun altitude
Rises 03:21:10 0° 123° (ESE) 3,909 6.5 -10.1°
Reaches altitude 10° 03:23:38 10° 122° (ESE) 2,954 5.9 -9.8°
Maximum altitude 03:30:09 79° 37° (NE) 1,125 3.5 -8.7°
Drops below altitude 10° 03:36:42 10° 312° (NW) 2,966 5.3 -7.7°
Sets 03:39:12 0° 312° (NW) 3,926 5.9 -7.3°
